This is the latest recevied weather packets stored in our database for station/object EW1958. If no packets are shown the sender has not sent any weather packets the latest 10 day(s).
| Time | Temp. | Humidity | Pressure | Rain* | Wind** | Luminosity | Snow |
|---|---|---|---|---|---|---|---|
| 1788664209 | 16.11° C | 83% | 1019.6 hPa | 0 mm | - | - | - |
| 1788663908 | 16.11° C | 84% | 1019.7 hPa | 0 mm | - | - | - |
| 1788663631 | 16.67° C | 83% | 1019.5 hPa | 0 mm | - | - | - |
| 1788663620 | 16.11° C | 83% | 1019.7 hPa | 0 mm | - | - | - |
| 1788663009 | 16.67° C | 82% | 1019.5 hPa | 0 mm | - | - | - |
| 1788662709 | 16.67° C | 82% | 1019.5 hPa | 0 mm | - | - | - |
| 1788662408 | 16.67° C | 82% | 1019.5 hPa | 0 mm | - | - | - |
| 1788662109 | 17.22° C | 82% | 1019.5 hPa | 0 mm | - | - | - |
| 1788661808 | 17.22° C | 82% | 1019.4 hPa | 0 mm | - | - | - |
| 1788661508 | 17.22° C | 82% | 1019.4 hPa | 0 mm | - | - | - |
| 1788661338 | 17.22° C | 82% | 1019.3 hPa | 0 mm | - | - | - |
| 1788660908 | 17.78° C | 80% | 1019.3 hPa | 0 mm | - | - | - |
| 1788660609 | 17.78° C | 78% | 1019.3 hPa | 0 mm | - | - | - |
| 1788660309 | 17.78° C | 77% | 1019.3 hPa | 0 mm | - | - | - |
| 1788660007 | 17.78° C | 78% | 1019.3 hPa | 0 mm | - | - | - |
| 1788659709 | 18.33° C | 76% | 1019.2 hPa | 0 mm | - | - | - |
| 1788659409 | 18.33° C | 75% | 1019.3 hPa | 0 mm | - | - | - |
| 1788659109 | 18.33° C | 72% | 1019.3 hPa | 0 mm | - | - | - |
| 1788658808 | 18.33° C | 71% | 1019.2 hPa | 0 mm | - | - | - |
| 1788658640 | 18.33° C | 70% | 1019.2 hPa | 0 mm | - | - | - |
| 1788658207 | 18.89° C | 72% | 1019.2 hPa | 0 mm | - | - | - |
| 1788657909 | 18.89° C | 70% | 1019.2 hPa | 0 mm | - | - | - |
| 1788657609 | 18.89° C | 71% | 1019.2 hPa | 0 mm | - | - | - |
| 1788657309 | 18.89° C | 68% | 1019.1 hPa | 0 mm | - | - | - |
| 1788657008 | 19.44° C | 65% | 1019.1 hPa | 0 mm | - | - | - |
* Rain latest hour (hover to see other rain measurements)
** Current wind speed in m/s (hover to see current wind gust speed)